Regional Weather Roundup
Issued by NWS Portland, ME

Current Version | Previous Version | Text Only | Print | Product List | Glossary Off
Versions: 1 2 3 4 5 6 7 8 9 10 11 12 13 14 15 16 17 18 19 20 21 22 23 24 25 26 27 28 29 30 31 32 33 34 35 36 37 38 39 40 41 42 43 44 45 46 47 48 49 50
000 ASUS41 KGYX 241710 RWRGYX WEATHER ROUNDUP FOR MAINE AND NEW HAMPSHIRE NATIONAL WEATHER SERVICE GRAY ME 100 PM EDT FRI MAR 24 2017 MEZ002-005-006-010-012-015-018-020-021-024-026-027-029-241800- MAINE CITY SKY/WX TMP DP RH WIND PRES REMARKS PORTLAND LGT SNOW 31 28 89 S9 30.32F FOG SANFORD SNOW 33 28 81 VRB7 30.30F VSB 1/2 BAR HARBOR LGT SNOW 29 26 89 S15 30.36F VSB 1 WCI 18 WISCASSET LGT SNOW 32 28 85 S10 30.34F VSB 1 ROCKLAND LGT SNOW 30 30 100 S12 30.35F VSB 3/4 FRYEBURG LGT SNOW 29 26 89 S6 30.26F VSB 1 LEWISTONAUBURN LGT SNOW 31 26 82 S12G17 30.28F AUGUSTA LGT SNOW 29 26 89 S8 30.28F VSB 3/4 WATERVILLE SNOW 32 28 85 S8 30.25F VSB 1/2 BANGOR LGT SNOW 28 25 88 S15 30.31F VSB 1 WCI 16 GREENVILLE N/A 22 20 92 S12G18 30.15F WCI 10 MILLINOCKET LGT SNOW 25 18 74 VRB6 30.28F HOULTON CLOUDY 28 5 37 S17G29 30.23F WCI 16 PRESQUE ISLE CLOUDY 31 8 38 S17G25 30.18F WCI 19 FRENCHVILLE CLOUDY 27 8 44 S16G25 30.11F WCI 15 CARIBOU CLOUDY 30 10 43 SW15G23 30.16F WCI 19 $$ NHZ002-005-008-009-011-012-014-241800- NEW HAMPSHIRE CITY SKY/WX TMP DP RH WIND PRES REMARKS PORTSMOUTH LGT SNOW 32 30 90 S8 30.29F VSB 3/4 ROCHESTER LGT SNOW 31 28 89 S6 30.27F VSB 3/4 NASHUA LGT SNOW 34 29 82 VRB3 30.29 VSB 1 MANCHESTER LGT SNOW 35 25 66 S14G24 30.26F CONCORD LGT SNOW 30 27 88 S10 30.27F FOG LACONIA LGT SNOW 31 26 82 S7 30.25F PLYMOUTH LGT SNOW 27 25 94 CALM 30.25F VSB 3/4 BERLIN CLOUDY 28 20 71 S8 30.14F WHITEFIELD LGT SNOW 29 23 78 CALM 30.15F JAFFREY LGT SNOW 31 28 89 S8 30.22F FOG KEENE LGT SNOW 32 28 85 S9 30.24F FOG LEBANON LGT SNOW 30 25 81 VRB3 30.19F MT WASHINGTON SNOW 12 12 100 W41 N/A VSB 0 WCI -12 $$ VTZ005-007-008-241800- VERMONT CITY SKY/WX TMP DP RH WIND PRES REMARKS ST JOHNSBURY N/A 27 24 89 MISG 30.17F MONTPELIER LGT SNOW 26 22 84 S8 30.18F FOG BURLINGTON LGT SNOW 31 25 78 S10 30.13F VSB 1 $$ MAZ007-012-024-CTZ003-RIZ002-NYZ038-NYZ072-241800- SOUTHERN NEW ENGLAND AND NY CITY SKY/WX TMP DP RH WIND PRES REMARKS BOSTON LGT RAIN 40 27 59 S20G37 30.32F WORCESTER SNOW 32 28 85 S15 30.25F VSB 1/2 NANTUCKET CLOUDY 39 27 62 S16 30.43F PROVIDENCE CLOUDY 42 25 50 SW16G25 30.36F HARTFORD LGT RAIN 38 30 73 S13 30.28F ALBANY CLOUDY 36 23 59 S16 30.19F NEW YORK CITY CLOUDY 49 22 34 S14G26 30.32F $$ ANZ081-ANZ082-ANZ150-NHZ014-MEZ023>029-241800- COASTAL MARINE OBSERVATIONS STATION/POSITION TIME TEMP WIND PRES WAVE AIR SEA DIR/SP/G HT/PER (UTC) (F) (DEG/KT/KT) (MB) (FT/S) MOUNT DESERT ROC 1700 30 1029.0F MATINICUS ROCK 1600 30 210/ 25/ 28 1029.0F ISLE OF SHOALS 1600 35 180/ 19/ 22 1028.2F JEFFREYS LEDGE 1606 41 N/A 4/ 5 CASHES LEDGE BUO 1650 33 39 1029.9F 4/ 4 GEORGES BANK BUO 1550 36 41 1033.5 5/ 7 $$ .............KEY.............. WCI - WIND CHILL TC - TEMPERATURE IN CELSIUS VSB - VISIBILITY IN MILES HX - HEAT INDEX FAIR- INDICATES FEW OR NO CLOUDS BELOW 12,000 FT, WITH NO SIGNIFICANT WEATHER AND/OR OBSTRUCTIONS TO VISIBILITY.

USA.gov is the U.S. government's official web portal to all federal, state and local government web resources and services.